FLOCK 3P-74 (42048 NORAD) Tracking and Keplerian Element Data

This shows tracking and keplerian element data for the satellite.

Feedback or suggestion? Click here.




ElementValue
Catalog42048
NameFLOCK 3P-74
Epoch Orbit5456
Epoch Day45.37535282
Epoch Year2018
RAAN111.0167
Inclination97.4684
Eccentricity0.0010111
Argument of Perigee72.5074
Mean Anonmoly287.7267
Mean Motion15.23915356
Decay Rate2.343E-05
L11 42048U 17008DE 18045.37535282 .00002343 00000-0 99855-4 0 9999
L22 42048 97.4684 111.0167 0010111 72.5074 287.7267 15.23915356 54563

Live tracking and technical data element details for FLOCK 3P-74 (NORAD 42048). FLOCK 3P-74 can be tracked NOW for your location showing map with azimuth and elevation plus other details from your city location.

Track the satellite on the map from your city or location and see movement details for azimuth, elevation, latitude, longitude, range, height, and movement on the map or in text.







IsCatalogInMostPopularTable: catalog: 42048, numindb: 96
Update: records affected: 1



GetName: 42048 FLOCK 3P-74

Hit Count: updated at: Fri, 20 Jul 2018 07:07:05 GMT